Weather History for Hattiesburg, MS

Change the Weather History Date:

Tuesday, October 11, 2011

  Actual Average Record
Temperature  
Mean Temperature 68 °F 69 °F  
Max Temperature 71 °F 81 °F 92 °F (1997)
Min Temperature 65 °F 56 °F 34 °F (1951)
Degree Days  
Heating Degree Days 0 1  
Month to date heating degree days 11 11  
Since 1 July heating degree days 11 13  
Cooling Degree Days 3 5  
Month to date cooling degree days 32 68  
Year to date cooling degree days 2685 2295  
Growing Degree Days 18 (Base 50)    
Moisture  
Dew Point 62 °F    
Average Humidity 80    
Maximum Humidity 87    
Minimum Humidity 73    
Precipitation  
Precipitation T in 0.10 in 2.06 in (2001)
Month to date precipitation T 1.41  
Year to date precipitation 48.98 47.65  
Sea Level Pressure  
Sea Level Pressure 29.88 in    
Wind  
Wind Speed 4 mph (North)    
Max Wind Speed 10 mph    
Max Gust Speed 12 mph    
Visibility 10 miles    
Events      
T = Trace of Precipitation, MM = Missing Value Source: NWS Daily Summary

Daily Weather History Graph

Daily Weather History Graph

Search for Another Location

Airport:

Trip Planner

Search our weather history database for the weather conditions in past years. The results will help you decide how hot, cold, wet, or windy it might be!

Date:

Astronomy

Oct. 11, 2011 Rise Set
Actual Time 6:56 AM CDT 6:30 PM CDT
Civil Twilight 6:32 AM CDT 6:54 PM CDT
Nautical Twilight 6:04 AM CDT 7:22 PM CDT
Astronomical Twilight 5:36 AM CDT 7:50 PM CDT
Moon 6:05 PM CDT (10/11) 6:32 AM CDT (10/11)
Length of Visible Light 12h 21m
Length of Day
11h 33m
Full, 100% of the Moon is Illuminated
Oct 11
Full
Oct 11
Full
Oct 19
Last Quarter
Oct 26
New
Nov 2
First Quarter

Hourly Weather History & Observations

Time (CDT) Temp. Dew Point Humidity Pressure Visibility Wind Dir Wind Speed Gust Speed Precip Events Conditions
12:53 AM 66.9 °F 61.0 °F 81% 29.90 in 10.0 mi Calm Calm - N/A   Mostly Cloudy
1:28 AM 66.2 °F 60.8 °F 83% 29.90 in 10.0 mi North 3.5 mph - N/A   Overcast
1:53 AM 66.9 °F 61.0 °F 81% 29.88 in 10.0 mi North 3.5 mph - N/A   Overcast
2:53 AM 66.9 °F 61.0 °F 81% 29.87 in 10.0 mi North 4.6 mph - N/A   Overcast
3:20 AM 66.2 °F 60.8 °F 83% 29.88 in 10.0 mi North 4.6 mph - N/A   Overcast
3:53 AM 66.9 °F 61.0 °F 81% 29.87 in 10.0 mi NNE 4.6 mph - N/A   Overcast
5:53 AM 66.0 °F 61.0 °F 84% 29.90 in 10.0 mi North 5.8 mph - N/A   Overcast
6:53 AM 66.0 °F 62.1 °F 87% 29.91 in 6.0 mi North 4.6 mph - N/A   Overcast
7:53 AM 66.0 °F 62.1 °F 87% 29.90 in 10.0 mi North 4.6 mph - N/A   Overcast
8:05 AM 66.2 °F 62.6 °F 88% 29.91 in 10.0 mi North 4.6 mph - N/A   Overcast
9:04 AM 66.2 °F 62.6 °F 88% 29.91 in 10.0 mi North 5.8 mph - N/A   Overcast
9:53 AM 68.0 °F 62.1 °F 81% 29.91 in 10.0 mi North 4.6 mph - N/A   Overcast
10:53 AM 69.1 °F 62.1 °F 78% 29.90 in 10.0 mi NE 6.9 mph - N/A   Overcast
11:53 AM 69.1 °F 62.1 °F 78% 29.91 in 10.0 mi North 4.6 mph - N/A   Overcast
12:53 PM 70.0 °F 62.1 °F 76% 29.89 in 10.0 mi NNW 3.5 mph - N/A   Overcast
2:53 PM 70.0 °F 63.0 °F 78% 29.87 in 10.0 mi NNW 5.8 mph - N/A   Overcast
3:42 PM 69.8 °F 62.6 °F 78% 29.86 in 8.0 mi North 9.2 mph - N/A   Overcast
3:53 PM 70.0 °F 63.0 °F 78% 29.85 in 10.0 mi North 8.1 mph - N/A   Overcast
4:53 PM 71.1 °F 63.0 °F 75% 29.85 in 10.0 mi North 6.9 mph - N/A   Overcast
5:53 PM 70.0 °F 63.0 °F 78% 29.85 in 10.0 mi North 4.6 mph - N/A   Overcast
6:53 PM 70.0 °F 63.0 °F 78% 29.85 in 10.0 mi North 3.5 mph - N/A   Overcast
7:53 PM 69.1 °F 63.0 °F 81% 29.86 in 10.0 mi NNE 3.5 mph - N/A   Overcast
8:53 PM 69.1 °F 64.0 °F 84% 29.88 in 9.0 mi Calm Calm - N/A   Overcast
9:53 PM 68.0 °F 64.0 °F 87% 29.89 in 10.0 mi Calm Calm - N/A   Overcast
10:53 PM 69.1 °F 63.0 °F 81% 29.90 in 10.0 mi Calm Calm - N/A   Overcast
11:53 PM 69.1 °F 64.0 °F 84% 29.88 in 9.0 mi Calm Calm - N/A   Overcast